Back to catalog

COSMOS 911

AliveMilitaryPO
NORAD 10019·PAYLOAD·🇷🇺 Russia

Launched May 25, 1977 from Plesetsk Cosmodrome

Loading…

Next Passes (next 24 hours)

TLE

FreshSource: Space-Track

Epoch: Sep 14, 2026, 11:23 UTC

1 10019U 77039A   26257.47448383  .00000030  00000-0  14972-4 0  9990
2 10019  82.9439  70.6920 0025950  94.0908 295.2417 13.75431332474134

Track COSMOS 911 in real time with AllMySat

Download on the App Store